Fort Meade, MD

2:46 PM EDT on May 20, 2018 (GMT -0400)
Tipton

Weather History for KFME - May, 2012

Change the Weather History Date:

Tuesday, May 15, 2012

  Actual Average (KBWI) Record (KBWI)
Temperature  
Mean Temperature 70 °F -  
Max Temperature 78 °F 73 °F 96 °F (1962)
Min Temperature 62 °F 52 °F 41 °F (1984)
Cooling Degree Days 5    
Growing Degree Days 20 (Base 50)    
Moisture  
Dew Point 63 °F    
Average Humidity 82    
Maximum Humidity 100    
Minimum Humidity 57    
Precipitation  
Precipitation 0.00 in - - ()
Sea Level Pressure  
Sea Level Pressure 29.97 in    
Wind  
Wind Speed 5 mph (South)    
Max Wind Speed 9 mph    
Max Gust Speed -    
Visibility 8 miles    
Events      
Averages and records for this station are not official NWS values.
T = Trace of Precipitation, MM = Missing Value Source: NWS Daily Summary

Daily Weather History Graph

Daily Weather History Graph

Search for Another Location

Airport or City:

Astronomy

May. 15, 2012 Rise Set
Actual Time 5:53 AM EDT 8:13 PM EDT
Civil Twilight 5:23 AM EDT 8:43 PM EDT
Nautical Twilight 4:46 AM EDT 9:21 PM EDT
Astronomical Twilight 4:05 AM EDT 10:02 PM EDT
Moon 2:52 AM EDT (5/15) 3:32 PM EDT (5/15)
Length of Visible Light 15h 20m
Length of Day
14h 20m
Waning Crescent, 24% of the Moon is Illuminated
May 15
Waning Crescent
May 20
New
May 28
First Quarter
Jun 4
Full
Jun 11
Last Quarter

Hourly Weather History & Observations

Time (EDT) Temp. Dew Point Humidity Pressure Visibility Wind Dir Wind Speed Gust Speed Precip Events Conditions
12:15 AM 62.6 °F 60.8 °F 94% 30.05 in 10.0 mi SE 5.8 mph - N/A   Overcast
12:36 AM 62.6 °F 60.8 °F 94% 30.04 in 7.0 mi SE 6.9 mph - N/A   Overcast
1:00 AM 62.6 °F 60.8 °F 94% 30.04 in 7.0 mi SE 5.8 mph - N/A   Overcast
1:21 AM 64.4 °F 60.8 °F 88% 30.03 in 7.0 mi SE 4.6 mph - N/A   Overcast
1:42 AM 62.6 °F 62.6 °F 100% 30.03 in 7.0 mi SE 5.8 mph - N/A   Overcast
2:03 AM 64.4 °F 62.6 °F 94% 30.02 in 7.0 mi SE 4.6 mph - N/A   Overcast
2:24 AM 64.4 °F 62.6 °F 94% 30.01 in 7.0 mi SE 5.8 mph - N/A   Overcast
2:45 AM 64.4 °F 62.6 °F 94% 30.00 in 7.0 mi SE 5.8 mph - N/A   Overcast
3:48 AM 64.4 °F 62.6 °F 94% 29.99 in 5.0 mi SE 3.5 mph - N/A   Overcast
4:12 AM 64.4 °F 62.6 °F 94% 29.98 in 7.0 mi Calm Calm - N/A   Overcast
4:54 AM 64.4 °F 62.6 °F 94% 29.98 in 7.0 mi Calm Calm - N/A   Overcast
5:15 AM 64.4 °F 62.6 °F 94% 29.98 in 7.0 mi SSE 4.6 mph - N/A   Mostly Cloudy
5:36 AM 64.4 °F 62.6 °F 94% 29.98 in 5.0 mi SE 4.6 mph - N/A   Overcast
5:57 AM 64.4 °F 62.6 °F 94% 29.98 in 2.0 mi SSE 4.6 mph - N/A   Overcast
6:18 AM 64.4 °F 62.6 °F 94% 29.99 in 2.0 mi South 5.8 mph - N/A   Unknown
6:39 AM 64.4 °F 62.6 °F 94% 29.99 in 2.5 mi South 6.9 mph - N/A   Unknown
7:00 AM 62.6 °F 62.6 °F 100% 29.98 in 2.5 mi SSE 4.6 mph - N/A   Overcast
7:21 AM 64.4 °F 62.6 °F 94% 29.98 in 2.0 mi SE 4.6 mph - N/A   Overcast
8:06 AM 64.4 °F 62.6 °F 94% 29.98 in 7.0 mi Calm Calm - N/A   Mostly Cloudy
8:27 AM 64.4 °F 62.6 °F 94% 29.98 in 5.0 mi SSE 3.5 mph - N/A   Overcast
8:48 AM 64.4 °F 64.4 °F 100% 29.99 in 7.0 mi Calm Calm - N/A   Overcast
9:09 AM 66.2 °F 64.4 °F 94% 29.99 in 7.0 mi Calm Calm - N/A   Overcast
9:30 AM 68.0 °F 64.4 °F 88% 29.99 in 10.0 mi SW 3.5 mph - N/A   Overcast
9:51 AM 69.8 °F 64.4 °F 83% 29.99 in 10.0 mi South 4.6 mph - N/A   Mostly Cloudy
10:12 AM 69.8 °F 64.4 °F 83% 29.99 in 10.0 mi South 3.5 mph - N/A   Mostly Cloudy
10:33 AM 69.8 °F 64.4 °F 83% 29.99 in 10.0 mi SW 3.5 mph - N/A   Scattered Clouds
10:54 AM 71.6 °F 64.4 °F 78% 29.99 in 10.0 mi South 4.6 mph - N/A   Scattered Clouds
11:39 AM 73.4 °F 62.6 °F 69% 29.98 in 10.0 mi SSW 3.5 mph - N/A   Scattered Clouds
12:00 PM 73.4 °F 62.6 °F 69% 29.97 in 10.0 mi South 5.8 mph - N/A   Scattered Clouds
12:21 PM 71.6 °F 62.6 °F 73% 29.98 in 10.0 mi SSW 4.6 mph - N/A   Mostly Cloudy
12:42 PM 73.4 °F 64.4 °F 73% 29.97 in 10.0 mi SSW 5.8 mph - N/A   Overcast
1:03 PM 75.2 °F 64.4 °F 69% 29.96 in 10.0 mi SSW 9.2 mph - N/A   Mostly Cloudy
1:24 PM 71.6 °F 64.4 °F 78% 29.97 in 10.0 mi SSW 4.6 mph - N/A   Overcast
1:45 PM 77.0 °F 64.4 °F 65% 29.97 in 10.0 mi SW 5.8 mph - N/A   Mostly Cloudy
2:06 PM 77.0 °F 64.4 °F 65% 29.96 in 10.0 mi SW 5.8 mph - N/A   Scattered Clouds
2:27 PM 77.0 °F 64.4 °F 65% 29.96 in 10.0 mi SSW 3.5 mph - N/A   Mostly Cloudy
2:48 PM 75.2 °F 64.4 °F 69% 29.96 in 10.0 mi SSW 6.9 mph - N/A   Mostly Cloudy
3:09 PM 78.8 °F 62.6 °F 57% 29.94 in 10.0 mi SSW 8.1 mph - N/A   Scattered Clouds
3:33 PM 77.0 °F 60.8 °F 57% 29.94 in 10.0 mi SSW 4.6 mph - N/A   Clear
3:54 PM 77.0 °F 62.6 °F 61% 29.93 in 10.0 mi WSW 4.6 mph - N/A   Scattered Clouds
4:15 PM 78.8 °F 62.6 °F 57% 29.93 in 10.0 mi Calm Calm - N/A   Scattered Clouds
4:36 PM 77.0 °F 62.6 °F 61% 29.93 in 10.0 mi SSW 6.9 mph - N/A   Scattered Clouds
4:57 PM 77.0 °F 60.8 °F 57% 29.93 in 10.0 mi WSW 3.5 mph - N/A   Mostly Cloudy
5:18 PM 75.2 °F 64.4 °F 69% 29.93 in 10.0 mi Calm Calm - N/A   Mostly Cloudy
5:39 PM 77.0 °F 62.6 °F 61% 29.93 in 10.0 mi SW 5.8 mph - N/A   Scattered Clouds
6:00 PM 77.0 °F 62.6 °F 61% 29.93 in 10.0 mi South 6.9 mph - N/A   Scattered Clouds
6:21 PM 75.2 °F 62.6 °F 65% 29.92 in 10.0 mi South 3.5 mph - N/A   Scattered Clouds
6:42 PM 77.0 °F 62.6 °F 61% 29.93 in 10.0 mi SSE 6.9 mph - N/A   Scattered Clouds
7:03 PM 73.4 °F 64.4 °F 73% 29.93 in 10.0 mi SE 4.6 mph - N/A   Mostly Cloudy
7:27 PM 71.6 °F 64.4 °F 78% 29.94 in 10.0 mi SE 4.6 mph - N/A   Mostly Cloudy
7:48 PM 71.6 °F 64.4 °F 78% 29.94 in 10.0 mi SE 3.5 mph - N/A   Scattered Clouds
8:09 PM 69.8 °F 64.4 °F 83% 29.95 in 10.0 mi WNW 3.5 mph - N/A   Scattered Clouds
8:30 PM 69.8 °F 64.4 °F 83% 29.95 in 10.0 mi Calm Calm - N/A   Scattered Clouds
8:51 PM 68.0 °F 64.4 °F 88% 29.95 in 10.0 mi SE 4.6 mph - N/A   Clear
9:12 PM 68.0 °F 64.4 °F 88% 29.94 in 10.0 mi SE 5.8 mph - N/A   Scattered Clouds
9:33 PM 69.8 °F 64.4 °F 83% 29.97 in 10.0 mi South 3.5 mph - N/A   Mostly Cloudy
9:54 PM 68.0 °F 64.4 °F 88% 29.97 in 10.0 mi WSW 4.6 mph - N/A   Overcast
10:15 PM 68.0 °F 64.4 °F 88% 29.95 in 5.0 mi SSE 4.6 mph - N/A   Overcast
10:36 PM 68.0 °F 64.4 °F 88% 29.97 in 7.0 mi Calm Calm - N/A   Mostly Cloudy
10:57 PM 66.2 °F 64.4 °F 94% 29.98 in 10.0 mi SW 8.1 mph - N/A   Mostly Cloudy
11:21 PM 64.4 °F 62.6 °F 94% 29.98 in 10.0 mi Calm Calm - N/A   Mostly Cloudy
11:42 PM 64.4 °F 62.6 °F 94% 29.96 in 7.0 mi Calm Calm - N/A   Mostly Cloudy